sat.trackr.live / text

‹ back to catalog

ONEWEB-0701

NORAD 61607 · 2024-188P

PAYLOAD ACTIVE UNKNOWN

§ Identity

Operator
Country
UK
Launch date
2024-10-20
Launch site
AFWTR
Launch vehicle
Mass (kg)
RCS (m²)

Purposes: comms

External: N2YO · Heavens-Above · Gunter

§ Orbital elements

Epoch: 2026-09-19T14:40:57.344448Z

Period
109.89 min
Inclination
87.8911°
Eccentricity
0.0001093
Mean motion
13.10378574 rev/d
Perigee alt
1,220.9 km
Apogee alt
1,222.5 km
Semi-major
7,599.8 km
B*
1.5720e-3
RAAN
17.4711°
Arg perigee
83.3375°
Mean anomaly
276.7876°
Rev number
9,567

§ Raw data

ONEWEB-07011 61607U 24188P   26262.61177482  .00000561  00000+0  15720-2 0  99952 61607  87.8911  17.4711 0001093  83.3375 276.7876 13.10378574 95678

JSON: /api/v1/satellites/61607 · /tle

For live sub-satellite position, see the globe view (requires WebGL).

§ Visibility from observer

Set your observer location to see the next 7 days of passes ≥ 10°. The values pass through the URL so the page stays shareable.

No JS? Fill the form by hand. The geolocation button needs JavaScript.